Flag for Bahamas Weather past 2 weeks in Nassau, Bahamas

Now
77 °F

Rain showers. Broken clouds.


Feels Like: 78 °F
Forecast: 72 / 80 °F
Wind: 9 mph from East

Location: Nassau Airport

Current Time: Mar 3, 2015 at 2:12:29 PM

Latest Report: Mar 3, 2015 at 1:00 PM


Visibility: N/A

Pressure: 30.21 "Hg

Humidity: 83%

Dew point: 72 °F

Location of NassauLocation

Historic Weather in Nassau — Graph

°F

Nassau temperature yesterday

Maximum temperature yesterday: 81 °F (at 1:00 PM)
Minimum temperature yesterday: 72 °F (at 5:00 AM)
Average temperature yesterday: 75 °F

Past Weeks' High & Low Weather Summary

 TemperatureHumidityPressure
High86 °F (Feb 27, 1:00 PM)100% (Feb 18, 4:00 PM)30.32 "Hg (Feb 18, 4:00 PM)
Low54 °F (Feb 20, 6:00 AM)48% (Feb 19, 5:00 PM)29.89 "Hg (Feb 26, 4:00 AM)
Average73 °F77%30.13 "Hg
* Reported Feb 16 1:00 PM — Mar 3 1:00 PM, Nassau, Weather by CustomWeather, © 2015

Note: Actual official high and low records may vary slightly from our data, if they occured in-between our weather recording intervals... More about our weather records

Advertising

Nassau weather history for previous 24 hours

 ConditionsComfort  
Time TempWeatherWind HumidityBarometerVisibility
1:00 PM
Tue, Mar 3
77 °FRain showers. Broken clouds.9 mph83%30.21 "HgN/A
12:00 PM77 °FBroken clouds.12 mph74%30.21 "HgN/A
11:00 AM77 °FScattered clouds.12 mph74%30.22 "HgN/A
10:00 AM79 °FBroken clouds.9 mph74%30.22 "HgN/A
9:00 AM75 °FScattered clouds.8 mph78%30.21 "HgN/A
8:00 AM73 °FMild.6 mph78%30.19 "HgN/A
7:00 AM72 °FScattered clouds.5 mph88%30.17 "HgN/A
6:00 AM72 °FPassing clouds.3 mph83%30.16 "HgN/A
5:00 AM72 °FPassing clouds.3 mph83%30.16 "HgN/A
4:00 AM72 °FPassing clouds.2 mph88%30.15 "HgN/A
3:00 AM72 °FPassing clouds.2 mph83%30.16 "HgN/A
2:00 AM72 °FPassing clouds.3 mph83%30.17 "HgN/A
1:00 AM73 °FPassing clouds.5 mph89%30.19 "HgN/A
12:00 AM72 °FPassing clouds.3 mph83%30.20 "HgN/A
11:00 PM
Mon, Mar 2
73 °FPassing clouds.3 mph78%30.23 "HgN/A
10:00 PM73 °FPassing clouds.6 mph89%30.24 "HgN/A
9:00 PM73 °FPassing clouds.2 mph78%30.23 "HgN/A
8:00 PM73 °FPassing clouds.6 mph78%30.21 "HgN/A
7:00 PM75 °FPassing clouds.6 mph83%30.20 "HgN/A
6:00 PM75 °FPassing clouds.6 mph78%30.18 "HgN/A
5:00 PM77 °FScattered clouds.7 mph74%30.17 "HgN/A
4:00 PM79 °FScattered clouds.8 mph74%30.17 "HgN/A
3:00 PM77 °FScattered clouds.10 mph74%30.19 "HgN/A
2:00 PM77 °FScattered clouds.9 mph79%30.20 "HgN/A
Weather by CustomWeather, © 2015

See weather overviewHow to use our weather pages